Weather History for Juan Santamaria, Costa Rica

Change the Weather History Date:

Wednesday, July 3, 2013

  Actual Average Record
Temperature  
Mean Temperature 72 °F -  
Max Temperature 82 °F 80 °F - ()
Min Temperature 63 °F 65 °F - ()
Cooling Degree Days 8    
Growing Degree Days 22 (Base 50)    
Moisture  
Dew Point 66 °F    
Average Humidity 81    
Maximum Humidity 94    
Minimum Humidity 58    
Precipitation  
Precipitation 0.00 in 0.25 in - ()
Sea Level Pressure  
Sea Level Pressure 30.01 in    
Wind  
Wind Speed 7 mph ()    
Max Wind Speed 12 mph    
Max Gust Speed -    
Visibility 7.0 miles    
Events Fog    
T = Trace of Precipitation, MM = Missing Value Source: Averaged Metar Reports

Daily Weather History Graph

Daily Weather History Graph

Search for Another Location

Airport:

Trip Planner

Search our weather history database for the weather conditions in past years. The results will help you decide how hot, cold, wet, or windy it might be!

Date:

Astronomy

Jul. 03, 2013 Rise Set
Actual Time 5:20 AM CST 6:01 PM CST
Civil Twilight 4:57 AM CST 6:24 PM CST
Nautical Twilight 4:30 AM CST 6:51 PM CST
Astronomical Twilight 4:02 AM CST 7:19 PM CST
Moon 1:38 AM CST (7/3) 2:26 PM CST (7/3)
Length of Visible Light 13h 27m
Length of Day
12h 41m
Waning Crescent, 18% of the Moon is Illuminated
Jul 3
Waning Crescent
Jul 8
New
Jul 15
First Quarter
Jul 22
Full
Jul 29
Last Quarter

Hourly Weather History & Observations

Time (CST) Temp. Heat Index Dew Point Humidity Pressure Visibility Wind Dir Wind Speed Gust Speed Precip Events Conditions
12:00 AM 67 °F - 63 °F 81% 29.87 in 12 mi ENE 8.1 mph - - Fog Patches of Fog
12:00 AM 66.2 °F - 62.6 °F 88% 30.04 in 6.2 mi ENE 8.1 mph - N/A Fog Patches of Fog
1:00 AM 66.2 °F - 62.6 °F 88% 30.02 in - NNW 3.5 mph - N/A   Clear
2:00 AM 66.2 °F - 62.6 °F 88% 30.02 in - NW 5.8 mph - N/A   Clear
3:00 AM 66 °F - 63 °F 87% 29.89 in 12 mi NNE 10.4 mph - - Fog Patches of Fog
3:00 AM 66.2 °F - 62.6 °F 88% 30.02 in 6.2 mi NNE 10.4 mph - N/A Fog Patches of Fog
4:00 AM 66.2 °F - 62.6 °F 88% 30.01 in 6.2 mi East 3.5 mph - N/A   Mostly Cloudy
5:00 AM 64.4 °F - 62.6 °F 94% 30.03 in 6.2 mi NE 4.6 mph - N/A   Partly Cloudy
6:00 AM 65 °F - 61 °F 84% 29.92 in 12 mi East 5.8 mph - -   Overcast
6:00 AM 64.4 °F - 60.8 °F 88% 30.04 in 6.2 mi East 5.8 mph - N/A   Mostly Cloudy
7:00 AM 68.0 °F - 62.6 °F 83% 30.06 in - East 4.6 mph - N/A   Clear
8:00 AM 75.2 °F - 62.6 °F 65% 30.05 in - ENE 9.2 mph - N/A   Clear
9:00 AM 74 °F - 65 °F 68% 29.92 in 12 mi WSW 11.5 mph - -   Scattered Clouds
9:00 AM 73.4 °F - 66.2 °F 78% 30.09 in 6.2 mi WSW 11.5 mph - N/A   Scattered Clouds
10:00 AM 77.0 °F - 66.2 °F 69% 30.09 in 6.2 mi WSW 9.2 mph - N/A   Scattered Clouds
11:00 AM 78.8 °F - 66.2 °F 65% 30.09 in 6.2 mi West 9.2 mph - N/A   Scattered Clouds
12:00 PM 78.8 °F - 66.2 °F 65% 30.06 in 6.2 mi WSW 6.9 mph - N/A   Scattered Clouds
1:00 PM 80.6 °F 82.7 °F 66.2 °F 61% 30.03 in 6.2 mi WSW 6.9 mph - N/A   Mostly Cloudy
2:00 PM 82.4 °F 84.6 °F 66.2 °F 58% 30.00 in 6.2 mi SW 5.8 mph - N/A   Mostly Cloudy
3:00 PM 80 °F - 68 °F 59% 29.81 in 12 mi SW 9.2 mph - -   Partly Cloudy
3:00 PM 80.6 °F 83.2 °F 68.0 °F 65% 29.99 in 6.2 mi SW 9.2 mph - N/A   Mostly Cloudy
4:00 PM 80.6 °F 83.9 °F 69.8 °F 70% 29.98 in 6.2 mi WSW 9.2 mph - N/A   Mostly Cloudy
5:00 PM 73.4 °F - 69.8 °F 88% 30.00 in 6.2 mi WSW 11.5 mph - N/A   Mostly Cloudy
5:20 PM 71.6 °F - 69.8 °F 94% 30.01 in 1.9 mi WSW 11.5 mph - N/A   Mostly Cloudy
6:00 PM 71 °F - 69 °F 93% 29.89 in 3 mi WSW 6.9 mph - - Fog Partial Fog
6:00 PM 71.6 °F - 69.8 °F 94% 30.03 in 3.1 mi WSW 6.9 mph - N/A   Mostly Cloudy
7:00 PM 71.6 °F - 69.8 °F 94% 30.05 in 5.0 mi WSW 5.8 mph - N/A Fog Fog
8:00 PM 69.8 °F - 68.0 °F 94% 30.06 in 6.2 mi SW 5.8 mph - N/A Fog Scattered Clouds
9:00 PM 69 °F - 66 °F 88% 29.92 in 12 mi West 8.1 mph - -   Mostly Cloudy
9:00 PM 68.0 °F - 66.2 °F 94% 30.09 in 6.2 mi West 8.1 mph - N/A   Mostly Cloudy
10:00 PM 69.8 °F - 66.2 °F 88% 30.09 in 6.2 mi West 8.1 mph - N/A   Mostly Cloudy
11:00 PM 69.8 °F - 66.2 °F 88% 30.09 in 6.2 mi WNW 4.6 mph - N/A   Mostly Cloudy